User: anonymous   Login
Location: Caltech
(34.1382°N, 118.1253°W)
Time: 18:55:12
(UTC-08:00)
Language:

ALOS - Orbit

View from above orbital plane
View from above orbital plane
View from above satellite
View from above satellite

Ground track
Ground track

The orbit data is extracted from the following two-line orbital elements,

1 28931U 06002A   16036.18228254  .00000391  00000-0  86518-4 0  9994
2 28931  97.9034  80.8910 0002388  90.1892 269.9584 14.62110047534688
Epoch (UTC): 05 February 2016 04:22:29
Eccentricity: 0.0002388
inclination: 97.9034°
perigee height: 684 km
apogee height: 688 km
right ascension of ascending node: 80.8910°
argument of perigee: 90.1892°
revolutions per day: 14.62110047
mean anomaly at epoch: 269.9584°
orbit number at epoch: 53468

The dashed part of the orbit path shows where the satellite is in the earth's shadow,  

DLR